Regional Weather Roundup
Issued by NWS Goodland, KS

Home | Current Version | Previous Version | Graphics & Text | Print | Product List | Glossary On
Versions: 1 2 3 4 5 6 7 8 9 10 11 12 13 14 15 16 17 18 19 20 21 22 23 24 25 26 27 28 29 30 31 32 33 34 35 36 37 38 39 40 41 42 43 44 45 46 47 48 49 50
000
ASUS43 KGLD 242059
RWRGLD

GOODLAND FORECAST AREA HOURLY WEATHER ROUNDUP
NATIONAL WEATHER SERVICE GOODLAND KS
300 PM MDT SUN SEP 24 2017

...OFFICIAL OBSERVATIONS...

CITY           SKY/WX    TMP DP  RH WIND       PRES   REMARKS
GOODLAND KS    CLOUDY    53  52  96 N10       29.95F
HILL CITY KS   CLOUDY    65  62  90 N8        29.92F
IMPERIAL NEB   LGT RAIN  53  49  86 NE12      29.98F
MCCOOK NEB     LGT RAIN  56  55  97 NE8       29.97R FOG
AKRON CO       CLOUDY    50  45  83 NE13      29.99F
BURLINGTON CO  CLOUDY    53  51  93 NE12      29.97F
LIMON CO         N/A    N/A N/A N/A MISG      29.98F
$$

...UNOFFICIAL OBSERVATIONS...

CITY           SKY/WX    TMP DP  RH WIND       PRES   REMARKS
LENORA KS        N/A     60  32  34 MISG        N/A
NORTON KS      CLOUDY    59  54  82 NW8       29.93F
SHARON SPRINGS   N/A     54  53  96 NE9         N/A
KIT CARSON CO    N/A     53  49  88 MISG        N/A
YUMA CO        CLOUDY    48  45  87 NE10      29.99S
$$




USA.gov is the U.S. government's official web portal to all federal, state and local government web resources and services.